This demonstration page uses our WeatherBlox Daily Observations layout. Learn more.

39.29038, -76.61219

Hourly Observations for June 12, 2019

Temp ( °F °C ) Dew Point ( °F °C ) Humidity (%) Winds ( mph kmh ) Pressure ( in mb ) Visibility ( mi km ) Precip ( " mm )
12:54 am 00:54 undefined 71 21.7 50 10 47 47 undefined N/A 30.09 1019 N/A 0 0
1:54 am 01:54 undefined 70 21.1 49 9.4 47 47 undefined N/A 30.09 1019 N/A 0 0
2:54 am 02:54 undefined 68 20 48 8.9 49 49 undefined N/A 30.09 1019 N/A 0 0
3:54 am 03:54 undefined 67 19.4 47 8.3 49 49 undefined N/A 30.12 1020 N/A 0 0
4:54 am 04:54 undefined 66 18.9 47 8.3 50 50 undefined N/A 30.12 1020 N/A 0 0
5:54 am 05:54 undefined 66 18.9 47 8.3 50 50 undefined N/A 30.15 1021 N/A 0 0
6:54 am 06:54 undefined 66 18.9 47 8.3 50 50 undefined N/A 30.18 1022 N/A 0 0
7:54 am 07:54 undefined 67 19.4 47 8.3 49 49 undefined N/A 30.18 1022 N/A 0 0
8:54 am 08:54 undefined 68 20 49 9.4 51 51 undefined N/A 30.21 1023 N/A 0 0
9:54 am 09:54 undefined 69 20.6 48 8.9 47 47 undefined N/A 30.21 1023 N/A 0 0
10:54 am 10:54 undefined 71 21.7 48 8.9 44 44 undefined N/A 30.18 1022 N/A 0 0
11:54 am 11:54 undefined 72 22.2 50 10 46 46 undefined N/A 30.18 1022 N/A 0 0
12:54 pm 12:54 undefined 74 23.3 52 11.1 46 46 undefined N/A 30.18 1022 N/A 0 0
1:54 pm 13:54 undefined 76 24.4 51 10.6 42 42 undefined N/A 30.12 1020 N/A 0 0
2:54 pm 14:54 undefined 77 25 51 10.6 40 40 undefined N/A 30.09 1019 N/A 0 0
3:54 pm 15:54 undefined 76 24.4 52 11.1 43 43 undefined N/A 30.09 1019 N/A 0 0
4:54 pm 16:54 undefined 76 24.4 53 11.7 45 45 undefined N/A 30.09 1019 N/A 0 0
5:54 pm 17:54 undefined 75 23.9 50 10 41 41 undefined N/A 30.06 1018 N/A 0 0
6:54 pm 18:54 undefined 74 23.3 52 11.1 46 46 undefined N/A 30.03 1017 N/A 0 0
7:54 pm 19:54 undefined 72 22.2 57 13.9 59 59 undefined N/A 30.03 1017 N/A 0 0
8:54 pm 20:54 undefined 71 21.7 58 14.4 63 63 undefined N/A 30.03 1017 N/A 0 0
9:54 pm 21:54 undefined 70 21.1 58 14.4 66 66 undefined N/A 30.03 1017 N/A 0 0
10:54 pm 22:54 undefined 67 19.4 60 15.6 79 79 undefined N/A 30 1016 N/A 0.02 0.508
11:54 pm 23:54 undefined 67 19.4 61 16.1 81 81 undefined N/A 29.97 1015 N/A 0.02 0.508

Powered by AerisWeather